Miscellaneous Local Product
Issued by NWS Hastings, NE

Home | Current Version | Previous Version | Text Only | Print | Product List | Glossary Off
Versions: 1 2 3 4 5 6 7 8 9 10 11 12 13 14 15 16 17 18 19 20 21 22 23 24 25 26 27 28 29 30 31 32 33 34 35 36 37 38 39 40 41 42 43 44 45 46 47 48 49 50

000
AXUS43 KGID 241502
MISGRI

GID CWA HOURLY WEATHER ROUNDUP
NATIONAL WEATHER SERVICE HASTINGS NE
900 AM CST SAT JAN 24 2015

NOTE: "FAIR" INDICATES FEW OR NO CLOUDS BELOW 12,000 FEET WITH NO
SIGNIFICANT WEATHER AND/OR OBSTRUCTIONS TO VISIBILITY.

...SOUTH CENTRAL NEBRASKA...

CITY           SKY/WX    TMP DP  RH WIND       PRES   REMARKS
GRAND ISLAND   SUNNY     32  26  78 W13       29.94F WCI  22
HASTINGS       SUNNY     33  26  75 W16       29.94F WCI  23
KEARNEY        SUNNY     36  25  64 W14       29.96F WCI  27
ORD            PTCLDY    34  26  72 NW7       29.90F WCI  28
YORK           SUNNY     32  27  80 W12       29.92F WCI  23
AURORA         SUNNY     32  26  80 W10       29.92F WCI  24
LEXINGTON      PTCLDY    26  23  89 NW7       29.98S WCI  18
HOLDREGE       SUNNY     32  25  75 W13       29.97F WCI  22
HEBRON         SUNNY     32  25  77 W12       29.95F WCI  23

...NEBRASKA PANHANDLE...

CITY           SKY/WX    TMP DP  RH WIND       PRES   REMARKS
CHADRON        CLOUDY    39  25  57 SW13      29.95F WCI  31
ALLIANCE       CLOUDY    31  25  78 W8        29.96F WCI  23
SCOTTSBLUFF    CLOUDY    38  24  57 NW14      30.00S WCI  30
SIDNEY         MOCLDY    35  19  52 W16       30.01F WCI  25

...WESTERN AND NORTH CENTRAL NEBRASKA...

CITY           SKY/WX    TMP DP  RH WIND       PRES   REMARKS
VALENTINE      CLOUDY    35  27  72 W10       29.87F WCI  27
AINSWORTH      CLOUDY    36  28  70 W14       29.87F WCI  27
ONEILL         PTCLDY    35  29  78 W6        29.86F WCI  30
BROKEN BOW     MOCLDY    34  26  72 W9        29.93S WCI  27
IMPERIAL       PTCLDY    33  23  66 W14       30.02F WCI  23
NORTH PLATTE   PTCLDY    28  24  85 NW7       29.98F WCI  21
MCCOOK         CLEAR     33  25  72 W8        30.02F WCI  26

...EASTERN NEBRASKA...

CITY           SKY/WX    TMP DP  RH WIND       PRES   REMARKS
NORFOLK        SUNNY     36  28  73 W12       29.85F WCI  28
SO SIOUX CITY  SUNNY     33  28  81 CALM      29.83F
TEKAMAH        SUNNY     34  29  82 W3        29.86F
COLUMBUS       SUNNY     34  25  69 W8        29.90S WCI  27
ALBION         SUNNY     32  26  77 CALM      29.88F
OMAHA EPPLEY   MOSUNNY   34  29  82 CALM      29.88F
OFFUTT AFB     SUNNY     32  28  85 SW2       29.88F
MILLARD        SUNNY     27  25  93 CALM      29.89F
LINCOLN        SUNNY     34  28  79 W6        29.92F WCI  29
NEBRASKA CITY  SUNNY     32  26  78 W13       29.90F WCI  23
BEATRICE       SUNNY     31  26  84 W9        29.94F WCI  23
FALLS CITY     SUNNY     35  27  72 W9        29.92F WCI  28

...NORTHERN KANSAS...

CITY           SKY/WX    TMP DP  RH WIND       PRES   REMARKS
GOODLAND       CLEAR     34  26  72 W12       30.06S WCI  25
HILL CITY      SUNNY     35  25  66 W10       30.04F WCI  27
NORTON         SUNNY     37  25  60 W14       30.00F WCI  29
PHILLIPSBURG   SUNNY     39  28  65 W12       30.00F WCI  32
SMITH CENTER   SUNNY     27  25  93 SW5       30.01S WCI  21
BELOIT         SUNNY     34  28  80 W7        29.99F WCI  28
HAYS           SUNNY     32  19  59 W9        30.05F WCI  24
RUSSELL        SUNNY     32  27  81 SW8       30.03F WCI  25
CONCORDIA      SUNNY     34  28  79 W12       29.98F WCI  25
SALINA         SUNNY     35  28  75 SW7       30.03F WCI  29
TOPEKA         SUNNY     35  28  75 W8        29.99F WCI  29



USA.gov is the U.S. government's official web portal to all federal, state and local government web resources and services.